CW1923 Weather Reports


Display with metric or nautical units.
time (UTC)temp
F
wind
direction
speed
MPH
gust
MPH
rain 1hr
in
rain 24hr
in
rain mn
in
humidity
%
barometer
mb
20260506005305 49 330 0.0 4.0 0.01 0.07 0.02 97 1008.5
20260506004805 49 330 0.0 4.0 0.01 0.07 0.02 97 1008.6
20260506004304 49 330 0.0 2.0 0.01 0.07 0.02 97 1008.6
20260506003802 49 330 0.0 2.0 0.01 0.07 0.02 97 1008.6
20260506003302 49 330 0.0 4.0 0.01 0.07 0.02 97 1008.7
20260506002749 49 330 0.0 4.0 0.01 0.06 0.02 97 1008.7
20260506002241 49 329 0.0 4.0 0.01 0.06 0.02 97 1008.7
20260506001740 49 329 0.0 4.0 0.01 0.06 0.02 97 1008.8
20260506001240 49 329 0.0 4.0 0.01 0.06 0.02 97 1008.8
20260506000733 49 328 0.0 4.0 0.01 0.06 0.02 97 1008.8
20260505235734 49 326 0.0 2.0 0.01 0.06 0.02 97 1008.9
20260505234231 49 322 0.0 2.0 0.01 0.06 0.02 97 1008.9
20260505233230 50 322 0.0 2.0 0.01 0.06 0.02 97 1008.9
20260505232731 50 322 0.0 2.0 0.00 0.06 0.01 97 1009.0
20260505231734 50 322 0.0 0.0 0.01 0.06 0.01 97 1009.0
20260505231232 50 322 0.0 0.0 0.01 0.06 0.01 97 1009.0
20260505230734 50 322 0.0 0.0 0.01 0.06 0.01 97 1009.1
20260505230230 50 322 0.0 2.0 0.01 0.07 0.01 97 1009.1
20260505225731 50 322 0.0 2.0 0.01 0.07 0.01 97 1009.2
20260505224731 50 322 0.0 2.0 0.02 0.08 0.01 97 1009.2
20260505224233 50 322 0.0 2.0 0.02 0.09 0.01 97 1009.3
20260505223731 50 322 0.0 2.0 0.02 0.09 0.01 97 1009.3
20260505223233 50 322 0.0 2.0 0.02 0.09 0.01 97 1009.3
20260505222734 50 322 0.0 2.0 0.02 0.09 0.01 97 1009.2
20260505222233 50 322 0.0 2.0 0.02 0.10 0.01 97 1009.3
20260505221733 51 318 0.0 4.0 0.02 0.10 0.00 97 1009.2
20260505221233 51 318 0.0 4.0 0.02 0.11 0.00 97 1009.2
20260505220733 51 318 2.0 4.0 0.02 0.12 0.00 97 1009.3
20260505220234 51 311 0.0 4.0 0.02 0.12 0.00 97 1009.3
20260505215735 52 0 0.0 0.0 0.02 0.13 0.11 97 1009.4
20260505215232 52 0 0.0 0.0 0.02 0.12 0.11 97 1009.3
20260505214733 51 0 0.0 0.0 0.02 0.12 0.11 97 1009.4
20260505214233 52 0 0.0 0.0 0.02 0.12 0.11 97 1009.4
20260505213731 51 0 0.0 0.0 0.01 0.11 0.10 97 1009.4
20260505213230 52 0 0.0 0.0 0.02 0.11 0.10 97 1009.5
20260505212233 52 0 0.0 0.0 0.02 0.12 0.10 97 1009.5
20260505211734 52 0 0.0 0.0 0.02 0.12 0.10 97 1009.4
20260505211220 52 0 0.0 0.0 0.02 0.12 0.10 97 1009.4
20260505210715 52 0 0.0 0.0 0.01 0.11 0.09 97 1009.4
20260505210210 52 0 0.0 0.0 0.01 0.11 0.09 97 1009.4
20260505205706 52 0 0.0 0.0 0.01 0.11 0.09 97 1009.5
20260505205212 52 0 0.0 0.0 0.01 0.11 0.09 97 1009.5
20260505204705 52 0 0.0 0.0 0.01 0.11 0.09 97 1009.4
20260505204203 52 0 0.0 0.0 0.01 0.11 0.09 97 1009.4
20260505203706 52 0 0.0 0.0 0.01 0.11 0.09 97 1009.4
20260505203207 52 0 0.0 0.0 0.00 0.10 0.09 97 1009.4
20260505202205 52 0 0.0 0.0 0.00 0.11 0.09 97 1009.4
20260505200204 52 0 0.0 0.0 0.00 0.11 0.09 97 1009.2
20260505195705 52 0 0.0 0.0 0.00 0.11 0.09 97 1009.3
20260505195208 52 0 0.0 0.0 0.00 0.11 0.09 97 1009.2
20260505194707 52 0 0.0 0.0 0.00 0.11 0.09 97 1009.3
20260505194205 52 0 0.0 0.0 0.00 0.11 0.09 97 1009.2
20260505193708 52 0 0.0 0.0 0.00 0.11 0.09 97 1009.2
20260505193204 52 0 0.0 0.0 0.00 0.11 0.09 97 1009.1
20260505192703 52 0 0.0 0.0 0.00 0.11 0.09 97 1009.0
20260505192206 52 0 0.0 0.0 0.00 0.11 0.09 97 1009.1
20260505191706 52 0 0.0 0.0 0.00 0.11 0.09 97 1009.1
20260505191205 52 0 0.0 0.0 0.00 0.11 0.09 97 1009.0
20260505190649 52 0 0.0 0.0 0.00 0.11 0.09 97 1009.0
20260505190145 52 0 0.0 0.0 0.00 0.11 0.09 97 1009.0
20260505185634 52 0 0.0 0.0 0.00 0.11 0.09 97 1009.0
20260505185137 52 0 0.0 0.0 0.00 0.11 0.09 97 1009.0
20260505184634 52 0 0.0 0.0 0.00 0.11 0.09 97 1009.0
20260505184133 52 0 0.0 0.0 0.00 0.11 0.09 97 1009.0
20260505183634 52 0 0.0 0.0 0.00 0.11 0.09 97 1009.0
20260505183134 52 0 0.0 0.0 0.00 0.11 0.09 97 1008.9
20260505182634 52 0 0.0 0.0 0.00 0.11 0.09 97 1008.9
20260505182127 52 0 0.0 0.0 0.00 0.12 0.09 97 1008.9
20260505181629 52 0 0.0 0.0 0.00 0.13 0.09 98 1009.0
20260505181126 52 0 0.0 0.0 0.00 0.16 0.09 97 1008.9
20260505180610 52 0 0.0 0.0 0.00 0.18 0.09 98 1008.8
20260505180105 52 0 0.0 0.0 0.00 0.19 0.09 97 1008.9
20260505175604 52 0 0.0 0.0 0.00 0.20 0.09 98 1008.9
20260505175104 52 0 0.0 0.0 0.00 0.21 0.09 97 1008.8
20260505174603 52 0 0.0 0.0 0.00 0.22 0.09 98 1008.9
20260505174106 52 0 0.0 0.0 0.00 0.23 0.09 98 1008.9
20260505173605 52 0 0.0 2.0 0.00 0.24 0.09 97 1009.0
20260505173102 52 358 0.0 2.0 0.00 0.24 0.09 98 1008.9
20260505172604 52 358 0.0 0.0 0.00 0.25 0.09 98 1009.0
20260505172104 52 358 0.0 2.0 0.00 0.27 0.09 97 1009.0
20260505171604 52 358 0.0 4.0 0.00 0.28 0.09 98 1009.1
20260505171103 52 358 0.0 4.0 0.00 0.31 0.09 97 1009.1
20260505165604 52 5 0.0 0.0 0.00 0.40 0.09 98 1009.2
20260505164603 52 5 0.0 0.0 0.00 0.51 0.09 98 1009.2
20260505164104 52 5 0.0 4.0 0.00 0.54 0.09 98 1009.2
20260505163604 52 4 0.0 5.0 0.00 0.57 0.09 98 1009.1
20260505162059 52 76 0.0 4.0 0.00 0.59 0.09 98 1009.1
20260505161555 52 64 0.0 4.0 0.01 0.59 0.09 98 1009.2
20260505161043 52 53 2.0 5.0 0.01 0.59 0.09 98 1009.3
20260505153033 52 104 2.0 5.0 0.01 0.59 0.09 98 1009.3
20260505152532 52 106 0.0 4.0 0.01 0.59 0.09 98 1009.4
20260505152032 52 106 0.0 4.0 0.01 0.59 0.09 98 1009.5
20260505150532 52 116 0.0 4.0 0.00 0.58 0.08 98 1009.5
20260505140530 52 131 2.0 12.0 0.00 0.58 0.08 98 1009.8
20260505124502 51 101 0.0 5.0 0.00 0.58 0.08 98 1010.3
20260505124004 52 98 0.0 5.0 0.00 0.58 0.08 98 1010.3
20260505123506 51 112 0.0 4.0 0.00 0.58 0.08 98 1010.3
20260505123005 51 114 0.0 5.0 0.00 0.58 0.08 98 1010.3
20260505121950 52 120 0.0 4.0 0.00 0.58 0.08 98 1010.4
20260505121451 52 123 0.0 4.0 0.01 0.58 0.08 98 1010.4
20260505120949 52 123 0.0 4.0 0.01 0.58 0.08 98 1010.4
20260505115441 52 158 2.0 4.0 0.01 0.58 0.08 98 1010.3
20260505114935 52 88 2.0 5.0 0.01 0.58 0.08 99 1010.3
20260505114433 52 347 2.0 5.0 0.01 0.58 0.08 98 1010.4
20260505113934 52 337 0.0 4.0 0.01 0.58 0.08 98 1010.4
20260505113432 51 337 2.0 5.0 0.01 0.58 0.08 98 1010.4
20260505112931 51 337 2.0 5.0 0.01 0.58 0.08 98 1010.4
20260505112425 52 74 0.0 5.0 0.01 0.58 0.08 98 1010.5
20260505111925 52 116 0.0 4.0 0.01 0.58 0.08 99 1010.5
20260505111425 52 116 2.0 5.0 0.00 0.57 0.07 98 1010.5
20260505110923 52 116 2.0 7.0 0.00 0.57 0.07 98 1010.6
20260505110421 52 127 0.0 7.0 0.00 0.57 0.07 98 1010.6
20260505101905 51 75 2.0 4.0 0.00 0.57 0.07 98 1010.6
20260505101405 51 68 0.0 4.0 0.00 0.57 0.07 98 1010.6
20260505100906 51 73 0.0 4.0 0.00 0.57 0.07 98 1010.7
20260505100404 51 73 0.0 4.0 0.00 0.57 0.07 98 1010.6
20260505095905 51 73 0.0 4.0 0.00 0.57 0.07 98 1010.7
20260505095406 51 76 2.0 5.0 0.00 0.57 0.07 98 1010.6
20260505094403 51 85 2.0 12.0 0.00 0.57 0.07 98 1010.6
20260505093906 51 109 2.0 9.0 0.00 0.57 0.07 98 1010.6
20260505093404 51 95 2.0 9.0 0.00 0.57 0.07 98 1010.6
20260505092408 51 303 2.0 7.0 0.00 0.57 0.07 98 1010.7
20260505091904 51 193 2.0 7.0 0.00 0.57 0.07 98 1010.7
20260505090906 51 193 2.0 5.0 0.00 0.57 0.07 98 1010.7
20260505090405 51 94 2.0 7.0 0.00 0.57 0.07 98 1010.7
20260505085904 51 87 2.0 7.0 0.00 0.57 0.07 98 1010.8
20260505085404 51 66 0.0 4.0 0.00 0.57 0.07 98 1010.7
20260505084904 51 101 0.0 5.0 0.00 0.57 0.07 98 1010.8
20260505083856 51 61 2.0 5.0 0.00 0.57 0.07 98 1010.8
20260505083351 51 61 2.0 5.0 0.00 0.57 0.07 98 1010.8
20260505081839 51 47 2.0 7.0 0.00 0.57 0.07 98 1010.7
20260505081342 51 47 2.0 7.0 0.00 0.57 0.07 98 1010.8
20260505080840 51 49 2.0 5.0 0.00 0.57 0.07 98 1010.7
20260505075838 51 54 0.0 4.0 0.00 0.57 0.07 98 1010.7
20260505075337 51 35 2.0 5.0 0.00 0.57 0.07 98 1010.6
20260505074834 51 9 2.0 7.0 0.00 0.57 0.07 98 1010.7
20260505074333 51 14 2.0 7.0 0.00 0.57 0.07 98 1010.8
20260505073834 51 15 2.0 7.0 0.00 0.57 0.07 98 1010.7
20260505072334 51 341 0.0 5.0 0.00 0.57 0.07 98 1010.9
20260505071332 51 83 2.0 5.0 0.00 0.57 0.07 98 1010.7
20260505070831 51 94 2.0 5.0 0.00 0.57 0.07 98 1010.8
20260505070332 51 25 2.0 5.0 0.00 0.57 0.07 98 1010.8
20260505065832 51 85 2.0 4.0 0.00 0.57 0.07 98 1010.7
20260505065331 51 85 2.0 4.0 0.00 0.57 0.07 98 1010.7
20260505064831 51 11 2.0 4.0 0.00 0.57 0.07 98 1010.8
20260505064332 51 10 2.0 7.0 0.00 0.57 0.07 98 1010.8
20260505063831 51 7 4.0 7.0 0.00 0.57 0.07 98 1010.8
20260505063332 51 19 2.0 5.0 0.00 0.57 0.07 98 1010.9
20260505062834 52 39 2.0 7.0 0.00 0.57 0.07 98 1010.9
20260505062332 52 35 2.0 7.0 0.00 0.57 0.07 98 1010.9
20260505061833 52 66 2.0 5.0 0.00 0.57 0.07 98 1011.0
20260505060818 52 62 4.0 7.0 0.00 0.57 0.07 98 1011.1
20260505060323 52 6 2.0 7.0 0.00 0.57 0.07 98 1011.0
20260505055804 52 25 2.0 7.0 0.00 0.57 0.07 98 1011.1
20260505055305 52 40 2.0 7.0 0.00 0.57 0.07 98 1011.0
20260505054803 52 7 2.0 5.0 0.00 0.57 0.07 98 1010.9
20260505054303 52 3 2.0 5.0 0.00 0.57 0.07 98 1011.0
20260505053804 52 3 2.0 5.0 0.00 0.57 0.07 98 1010.9
20260505053304 53 3 2.0 5.0 0.00 0.57 0.07 98 1010.8
20260505052802 53 3 2.0 5.0 0.00 0.57 0.07 98 1010.8
20260505052306 53 1 2.0 4.0 0.00 0.57 0.07 98 1010.8
20260505051303 53 359 2.0 5.0 0.00 0.57 0.07 98 1010.7
20260505050804 53 356 2.0 5.0 0.00 0.57 0.07 98 1010.7
20260505050303 53 3 2.0 5.0 0.00 0.57 0.07 98 1010.7
20260505041304 53 14 2.0 4.0 0.00 0.57 0.07 98 1010.9
20260505040802 53 12 2.0 5.0 0.00 0.57 0.07 98 1010.9
20260505040308 53 10 0.0 5.0 0.00 0.57 0.07 98 1011.0
20260505035806 53 357 0.0 4.0 0.00 0.57 0.07 98 1010.9
20260505034802 53 355 2.0 7.0 0.00 0.57 0.07 98 1011.0
20260505034303 54 353 2.0 7.0 0.00 0.57 0.07 98 1010.9
20260505033803 54 346 2.0 5.0 0.00 0.57 0.07 98 1010.9
20260505033301 54 345 2.0 5.0 0.00 0.57 0.07 98 1010.9
20260505032803 54 345 2.0 7.0 0.00 0.57 0.07 98 1010.9
20260505032300 54 343 2.0 7.0 0.00 0.57 0.07 98 1010.9
20260505031302 54 51 0.0 4.0 0.00 0.57 0.07 98 1011.0
20260505030804 54 53 2.0 5.0 0.00 0.57 0.07 98 1010.9
20260505030303 54 52 2.0 5.0 0.00 0.57 0.07 98 1010.9
20260505025304 54 58 2.0 5.0 0.00 0.57 0.07 98 1010.9
20260505024802 54 59 2.0 5.0 0.00 0.57 0.07 98 1011.0
20260505024303 54 64 0.0 5.0 0.00 0.57 0.07 98 1011.0
20260505023804 55 62 2.0 7.0 0.00 0.57 0.07 98 1011.1
20260505023304 55 89 2.0 7.0 0.00 0.57 0.07 97 1011.1
20260505022803 55 183 0.0 5.0 0.00 0.57 0.07 98 1011.1
20260505022304 55 184 0.0 4.0 0.00 0.57 0.07 98 1011.1
20260505021802 55 184 0.0 2.0 0.00 0.57 0.07 98 1011.0
20260505021301 55 184 0.0 2.0 0.00 0.57 0.07 98 1011.0
20260505020803 55 184 2.0 7.0 0.00 0.57 0.07 98 1011.0
20260505020301 55 183 2.0 7.0 0.00 0.57 0.07 97 1011.1
20260505015801 55 182 2.0 7.0 0.00 0.57 0.07 97 1011.1
20260505015303 55 180 0.0 4.0 0.00 0.57 0.07 98 1011.1
20260505014805 55 181 0.0 5.0 0.00 0.57 0.07 98 1011.0
20260505014307 56 181 0.0 5.0 0.00 0.57 0.07 97 1011.1
20260505013802 56 301 0.0 0.0 0.00 0.57 0.07 98 1011.1
20260505013302 56 301 0.0 2.0 0.00 0.57 0.07 97 1011.0
20260505012802 56 301 0.0 4.0 0.00 0.57 0.07 97 1011.1
20260505011803 56 301 0.0 7.0 0.00 0.57 0.07 98 1011.0
20260505011303 56 289 0.0 4.0 0.00 0.57 0.07 98 1011.0
20260505010803 56 289 2.0 5.0 0.00 0.57 0.07 98 1011.1
20260505010302 56 289 2.0 5.0 0.00 0.57 0.07 97 1011.2
20260505005802 56 287 0.0 5.0 0.00 0.57 0.07 97 1011.2